Regional Weather Roundup
Issued by NWS

Home | Current Version | Previous Version | Text Only | Print | Product List | Glossary On
Versions: 1 2 3 4 5 6 7 8 9 10 11 12 13 14 15 16 17 18 19 20 21 22 23 24 25 26 27 28 29 30 31 32 33 34 35 36 37 38 39 40 41 42 43 44 45 46 47 48 49 50
000
ASUS45 KCYS 090010
RWRWY

WYOMING REGIONAL WEATHER ROUNDUP
NATIONAL WEATHER SERVICE CHEYENNE WY
500 PM MST MON FEB 08 2016

NOTE:  "FAIR" INDICATES FEW OR NO CLOUDS BELOW 12,000 FEET
WITH NO SIGNIFICANT WEATHER AND/OR OBSTRUCTIONS TO VISIBILITY.

WYZ001-090100-
YELLOWSTONE NATIONAL PARK

CITY           SKY/WX    TMP DP  RH WIND       PRES   REMARKS
LK YELLOWSTONE   N/A     34  22  61 VRB3      30.55S
6HR MIN TEMP:  24; 6HR MAX TEMP:  37;

W YELLOWSTONE  NOT AVBL

$$
WYZ002>013-054>058-071-098>099-090100-
NORTHERN WYOMING

CITY           SKY/WX    TMP DP  RH WIND       PRES   REMARKS
JACKSON        NOT AVBL
CODY           FAIR      46  21  36 NE7       30.36R
GREYBULL       FAIR      42  20  41 S5        30.38S
6HR MIN TEMP:  33; 6HR MAX TEMP:  44;

WORLAND        FAIR      42  20  41 CALM      30.38F
6HR MIN TEMP:  31; 6HR MAX TEMP:  44;

SHERIDAN       FAIR      45  29  53 NW7       30.30R
6HR MIN TEMP:  45; 6HR MAX TEMP:  52;

BUFFALO        FAIR      44  29  55 N6        30.32R
GILLETTE       FAIR      40  27  59 NW8       30.29S WCI  34
6HR MIN TEMP:  35; 6HR MAX TEMP:  46;

HULETT         MOCLDY    41  25  52 W3        30.28F
NEWCASTLE      FAIR      37  19  48 NW16G23   30.27S WCI  28

$$
WYZ014>020-022>026-101>103-090100-
CENTRAL WYOMING

CITY           SKY/WX    TMP DP  RH WIND       PRES   REMARKS
BIG PINEY      FAIR      36  25  64 N17       30.50R WCI  26
6HR MIN TEMP:  33; 6HR MAX TEMP:  42;

PINEDALE       FAIR      36  23  60 NW22G29   30.48R WCI  24
DUBOIS         FAIR      37  19  48 W33G39    30.43F WCI  24
LANDER         FAIR      32  20  61 NW6       30.42R WCI  26
6HR MIN TEMP:  28; 6HR MAX TEMP:  38;

RIVERTON       FAIR      32  19  58 CALM      30.42R
6HR MIN TEMP:  24; 6HR MAX TEMP:  37;

CASPER         FAIR      35  23  61 SW10      30.38F WCI  27
6HR MIN TEMP:  32; 6HR MAX TEMP:  38;

DOUGLAS        FAIR      39  27  62 NW17        N/A  WCI  30
6HR MIN TEMP:  33; 6HR MAX TEMP:  43;


$$
WYZ021-027>030-104>119-090100-
SOUTHERN WYOMING

CITY           SKY/WX    TMP DP  RH WIND       PRES   REMARKS
EVANSTON       FAIR      31  18  58 N5        30.58S WCI  26
6HR MIN TEMP:  20; 6HR MAX TEMP:  33;

KEMMERER       FAIR      34  27  75 NW8G16    30.55R WCI  27
FORT BRIDGER   CLEAR     34  25  69 W16       30.58R WCI  23
ROCK SPRINGS   FAIR      34  25  69 SW18      30.48R WCI  23
6HR MIN TEMP:  32; 6HR MAX TEMP:  37;

DIXON          FAIR      24  17  73 CALM      30.53R
RAWLINS        FAIR      32  20  61 W10       30.46R WCI  24
6HR MIN TEMP:  30; 6HR MAX TEMP:  34;

SARATOGA       FAIR      32  23  69 W15       30.47R WCI  22
LARAMIE        FAIR      34  23  64 NW18      30.36R WCI  23
6HR MIN TEMP:  34; 6HR MAX TEMP:  40;

CHEYENNE       FAIR      40  24  53 NW22G38   30.31S WCI  30
6HR MIN TEMP:  39; 6HR MAX TEMP:  42;

TORRINGTON     FAIR      44  26  49 NW17      30.29S
6HR MIN TEMP:  37; 6HR MAX TEMP:  45;

PINE BLUFFS    FAIR      37  28  70 NW18G26   30.30S WCI  27

$$



USA.gov is the U.S. government's official web portal to all federal, state and local government web resources and services.